RH
10 8 7 6 5 6 5 6 8 12 14 9 20 25 23 24 20 18 24 29 39 82 94 36 74 100 88 90 100 100 100 100 98 97 81 94 100 100 100 94 89 98 88 96
8 7 6 6 6 5 5 5 9 15 14 21 28 28 27 25 24 21 22 28 48 88 64 47 61 62 69 94 95 98 88 99 96 95 73 98 100 99 100 100 100 97 85 92
8 7 6 6 6 5 5 5 9 17 17 27 30 30 31 30 29 28 26 36 48 72 43 53 65 60 63 75 96 97 82 60 62 82 98 100 100 95 84 98 87 92 100 100
8 6 6 6 5 5 4 4 14 20 26 31 32 32 35 35 34 35 37 42 46 79 75 50 61 63 61 61 92 92 82 100 90 100 99 87 100 100 97 99 100 97 100 100
7 6 6 6 6 4 3 4 13 20 22 32 33 34 38 40 40 44 47 51 60 86 77 63 67 67 69 75 68 83 87 100 100 100 100 100 81 94 100 100 100 100 100 100
6 6 6 6 5 4 3 4 8 15 24 35 34 38 41 45 46 53 53 51 56 82 100 100 73 78 74 72 68 79 94 99 100 100 69 71 78 100 100 100 100 100 100 100
6 5 6 6 5 4 4 4 6 14 28 36 36 36 39 46 50 52 51 48 47 63 94 77 69 72 77 66 62 67 93 89 92 100 85 77 99 100 100 100 100 100 98 100
5 6 6 6 5 4 4 4 6 13 26 43 44 44 37 44 47 50 49 48 45 48 57 64 64 64 68 60 60 56 64 68 71 86 96 94 100 100 100 100 100 99 84 81
5 6 6 6 5 4 4 5 7 14 23 46 47 45 42 37 44 45 48 50 46 41 45 56 80 83 79 74 58 44 53 58 72 100 86 88 100 93 85 89 100 94 90 79
6 7 7 6 6 5 5 5 8 17 20 44 45 49 52 48 40 44 46 47 48 47 51 66 78 88 86 92 98 92 70 66 96 93 100 100 100 93 87 90 100 98 99 91
6 7 7 7 6 6 5 7 11 20 24 40 47 52 55 57 54 47 49 50 48 50 52 70 81 94 83 98 99 98 100 98 98 96 90 84 99 93 100 100 100 96 82 80
7 8 8 7 7 6 6 6 17 21 18 40 48 52 56 57 64 59 59 64 67 57 56 61 70 98 100 96 99 100 100 100 100 100 96 89 92 93 100 100 100 89 82 76
8 9 9 8 7 8 6 7 14 20 19 29 39 52 57 61 62 67 67 70 79 94 89 77 79 86 100 100 100 100 100 100 100 100 96 94 89 100 100 100 97 94 94 87
9 10 10 10 9 8 9 8 10 17 20 23 34 41 47 60 59 63 66 84 90 96 90 92 91 95 98 100 100 100 100 100 100 100 100 93 93 100 100 98 100 100 100 100
10 10 11 12 12 10 10 10 10 12 19 32 28 30 44 52 63 64 55 94 100 96 97 96 95 100 100 94 86 100 100 100 100 100 100 100 100 100 100 100 100 100 100 96
9 11 11 13 14 14 10 11 11 11 12 21 31 32 41 52 56 63 66 72 93 87 73 82 87 98 99 99 100 100 95 100 100 100 100 100 100 100 100 100 100 100 100 100
10 11 13 14 15 16 14 13 12 11 12 18 28 31 29 43 38 42 60 74 87 70 55 88 90 90 86 95 100 86 98 100 100 100 100 97 100 100 100 100 100 100 100 100
9 12 13 14 17 16 17 16 14 14 13 19 24 24 24 22 21 36 37 52 73 76 49 90 94 86 83 98 90 75 100 98 97 99 100 100 100 100 99 99 99 94 94 96
10 11 14 14 16 16 18 19 19 18 16 22 21 24 22 24 17 20 43 56 68 93 56 91 90 96 91 81 73 89 100 100 100 100 100 100 93 87 94 98 97 100 99 99
10 12 13 15 15 17 18 20 22 21 20 20 19 21 26 20 20 23 50 59 56 83 53 88 70 82 67 70 54 95 100 100 100 100 97 75 66 90 98 100 100 100 100 100
11 13 14 16 17 17 20 22 23 23 26 23 20 19 24 20 23 35 36 67 49 73 48 79 47 62 73 47 50 100 100 100 100 100 99 66 82 97 96 97 96 93 94 98
10 12 14 16 19 19 21 24 26 26 25 23 20 20 24 30 31 36 41 60 41 38 59 55 45 61 52 36 71 100 100 100 100 100 56 49 81 86 85 91 91 92 96 96
12 13 16 18 16 20 25 28 29 25 24 24 22 22 25 29 35 43 46 47 36 46 36 40 50 50 34 34 82 100 100 100 100 87 35 44 70 78 85 90 94 98 99 98
12 15 17 17 20 25 29 30 29 26 24 24 25 23 26 30 36 37 41 34 40 34 37 41 42 38 28 34 81 100 100 100 100 71 28 34 48 70 84 90 94 91 88 90
14 17 17 21 23 26 28 30 32 29 27 26 26 27 28 30 41 34 40 32 28 31 41 40 36 31 25 28 64 99 100 99 100 79 25 25 32 54 72 85 83 78 81 82
16 18 20 22 24 26 29 32 32 32 28 28 29 30 30 31 31 37 38 42 39 36 36 36 31 26 23 23 33 78 99 100 100 100 43 22 23 33 48 63 55 71 75 73
19 21 22 23 25 27 29 32 33 34 32 30 32 31 34 32 29 36 39 43 39 34 33 32 30 27 24 22 22 32 78 100 100 100 93 29 21 23 31 33 35 45 62 68
Wind_Speed
45 48 51 54 56 56 54 48 35 36 35 36 33 28 21 18 19 20 13 16 16 13 8 17 12 12 19 31 15 9 9 4 7 12 29 25 30 20 8 4 4 6 5 5
46 48 51 54 55 55 53 41 33 27 36 37 29 26 24 18 21 23 17 19 18 12 11 8 18 17 25 23 14 10 12 2 6 3 9 25 31 30 13 11 4 19 4 4
45 48 50 53 53 52 47 40 31 29 40 34 27 20 26 23 21 23 18 19 15 10 16 16 14 26 26 25 12 9 10 26 23 18 13 19 26 35 32 17 16 15 11 11
44 48 50 52 53 51 45 43 32 33 34 35 30 26 23 23 22 22 23 19 20 12 3 12 21 25 30 33 18 9 13 17 18 19 21 31 30 30 36 32 21 13 10 13
44 47 49 51 51 48 46 44 37 28 32 30 27 28 25 25 23 24 24 21 20 16 13 14 18 26 36 35 25 13 8 8 6 3 1 4 33 29 19 27 29 22 17 12
44 46 49 50 47 45 47 43 37 32 30 29 31 28 23 25 23 23 23 22 19 14 13 12 13 26 32 32 34 15 9 5 3 3 5 6 13 33 17 9 24 31 23 24
42 46 48 48 46 44 45 40 39 33 30 29 30 27 22 23 23 22 24 25 22 18 11 12 14 17 27 34 33 35 9 5 3 1 1 5 8 29 22 6 6 23 31 25
41 45 45 44 43 42 41 37 39 32 29 26 26 28 27 20 24 23 25 26 21 26 18 9 7 12 11 25 36 32 34 10 7 3 7 6 11 36 29 15 8 13 35 28
40 42 42 42 40 39 39 33 40 30 25 27 24 27 27 28 22 26 24 23 27 29 29 20 14 13 12 20 23 36 29 30 17 8 3 3 13 38 23 11 1 23 33 30
38 39 39 40 39 39 39 33 37 27 28 26 23 26 27 29 27 22 22 24 22 24 29 25 18 12 13 18 25 27 37 28 24 17 4 3 20 38 14 9 17 38 33 29
35 37 36 39 37 35 36 37 32 30 29 27 23 23 23 25 26 25 21 18 18 22 20 16 8 12 13 10 30 30 23 16 17 13 8 6 28 33 17 20 33 35 31 28
32 35 34 39 37 35 35 37 23 29 32 29 22 21 21 20 20 20 21 22 23 18 16 10 13 12 7 19 16 25 14 17 12 9 10 21 29 25 19 26 37 33 31 29
29 34 31 36 37 32 34 36 26 23 27 31 27 23 18 15 15 16 16 17 19 20 19 16 9 9 14 11 14 26 23 29 20 21 19 31 21 18 30 27 29 30 29 29
26 31 31 30 37 35 31 33 34 23 19 29 33 30 20 14 13 12 13 14 16 20 19 16 13 8 11 16 18 24 35 27 31 23 25 35 29 29 31 29 28 28 28 28
20 28 31 28 33 34 31 32 32 32 22 13 26 32 27 18 17 14 11 10 14 18 17 18 17 13 8 16 26 24 40 33 28 32 34 33 34 33 32 32 31 30 30 29
14 23 29 30 23 34 30 35 34 27 31 20 13 28 32 23 21 19 14 9 13 16 21 18 19 13 8 14 24 32 38 33 30 33 35 35 34 33 32 33 32 31 31 29
12 18 25 27 27 22 33 36 31 27 27 30 10 14 30 24 21 20 18 14 11 20 25 16 17 15 11 19 33 46 42 38 37 37 40 39 37 37 34 32 31 29 28 28
18 7 16 25 24 23 20 29 29 36 28 25 27 18 23 22 20 17 16 16 10 15 26 14 13 13 20 27 49 45 41 40 39 39 38 39 40 38 35 32 31 28 26 23
17 17 6 11 21 24 20 14 24 24 36 24 30 32 20 22 17 18 12 12 9 11 23 19 14 12 27 51 49 45 43 43 43 42 41 41 38 36 33 32 28 27 26 24
11 15 18 8 14 23 22 16 14 20 24 36 32 31 27 23 15 15 12 8 8 10 19 17 17 16 42 49 44 42 43 43 45 48 47 44 39 36 33 31 31 29 24 24
14 11 13 15 11 16 14 18 11 20 15 29 29 28 27 22 20 13 11 9 9 7 15 16 17 24 49 46 42 42 43 43 45 45 43 40 37 36 35 32 29 26 24 24
15 13 9 13 13 11 12 14 14 12 17 25 23 26 26 26 15 12 11 8 10 7 19 11 18 41 46 44 42 42 43 45 46 45 43 40 37 35 34 31 29 28 26 25
9 12 10 7 9 13 11 14 17 14 21 22 20 21 25 21 20 8 8 7 9 15 9 16 27 44 43 41 41 41 42 44 46 44 41 39 36 34 34 33 30 29 28 26
3 5 9 8 7 9 15 16 18 16 21 21 19 15 21 20 13 9 8 12 9 10 10 23 42 43 42 40 40 41 42 44 46 43 40 38 35 33 33 33 33 30 28 26
4 4 5 10 11 14 16 17 19 18 19 18 19 14 13 17 7 12 10 11 10 9 22 36 39 39 40 39 39 40 40 43 45 43 40 38 36 35 34 35 33 31 28 26
10 7 7 10 12 14 17 17 19 21 13 22 17 16 9 10 7 10 10 12 9 26 31 33 35 36 38 38 38 38 39 41 42 42 39 36 36 37 35 33 32 31 30 28
5 6 8 11 13 14 15 16 18 20 21 13 15 10 9 8 10 13 17 22 24 27 28 30 33 35 37 37 37 38 38 39 40 40 40 37 38 37 35 33 33 32 31 30
Wind_Direction
352 351 350 349 350 351 352 357 6 1 8 10 33 42 38 29 22 18 29 18 16 27 45 42 40 24 11 356 14 34 17 79 78 86 41 38 25 11 12 346 28 27 62 55
353 353 351 352 353 354 2 9 13 11 9 36 36 41 35 32 23 22 28 24 21 42 44 65 44 36 22 19 32 47 30 28 141 116 28 29 32 36 39 47 56 29 32 29
355 354 355 355 357 4 6 16 21 17 17 34 36 41 36 31 26 25 26 28 28 62 70 70 46 36 34 26 42 60 67 69 87 101 91 51 39 47 54 64 62 58 57 12
358 357 358 360 4 8 8 21 31 28 28 34 36 40 36 34 36 32 29 25 30 43 102 55 43 36 41 34 38 53 90 100 94 105 80 53 46 40 49 51 47 46 4 17
360 0 2 5 8 10 11 25 34 28 35 39 41 44 40 35 35 33 31 31 29 35 62 72 52 42 36 29 32 56 83 121 98 82 315 21 26 35 32 43 39 34 30 18
3 5 7 8 9 13 18 26 29 24 40 40 43 43 46 37 36 36 36 33 33 42 61 62 58 49 44 37 31 41 63 112 112 87 75 66 17 10 15 26 34 27 18 358
8 9 9 10 12 16 21 24 24 27 50 46 51 49 47 42 42 44 39 37 37 35 63 69 62 52 43 35 39 36 37 48 55 83 146 55 14 14 12 354 311 8 7 3
12 11 10 13 15 19 21 25 28 33 55 60 58 52 48 44 43 47 44 47 54 63 62 55 41 36 45 41 36 36 37 38 42 61 53 127 0 0 350 346 279 332 351 357
15 13 14 16 19 21 23 27 31 33 54 61 56 54 51 49 51 49 52 55 57 67 73 67 60 47 33 13 21 37 39 46 55 29 46 32 357 357 353 359 227 333 346 348
17 15 20 19 22 23 26 29 34 34 57 64 53 52 51 52 54 60 61 60 63 58 63 65 59 59 55 31 18 4 18 24 25 20 19 10 354 345 4 24 321 333 336 338
18 18 24 24 26 25 29 32 35 38 52 61 51 47 46 46 48 58 61 59 51 48 56 58 63 55 58 37 25 23 19 8 9 357 358 5 326 335 348 326 325 326 328 330
20 20 27 27 29 28 34 33 43 41 47 55 47 42 39 38 44 45 47 51 51 54 54 61 61 60 41 35 28 17 17 15 338 342 301 325 333 320 323 302 315 322 325 326
22 22 27 29 31 31 36 38 40 38 43 47 42 36 31 25 26 36 38 38 35 35 36 35 51 60 42 32 25 13 9 0 353 351 336 340 344 326 321 319 321 323 323 322
22 26 27 31 31 33 36 41 43 43 41 43 39 33 28 27 18 15 24 27 25 24 27 30 33 36 29 34 13 5 0 352 350 341 339 338 344 334 329 328 324 320 320 320
24 27 29 31 31 33 34 43 45 43 46 38 36 33 33 31 22 24 23 26 30 30 27 31 31 19 4 12 4 357 356 349 338 332 339 332 334 330 326 322 320 317 316 315
29 27 28 31 35 32 34 46 41 41 43 47 41 29 26 25 27 22 24 22 24 34 30 32 28 17 15 9 357 345 350 348 344 335 335 332 329 327 324 319 317 313 311 310
21 31 29 25 27 31 35 43 39 39 43 45 28 25 23 25 27 34 36 38 45 32 23 29 32 23 21 3 352 348 348 348 345 342 335 334 332 330 327 321 317 313 311 309
22 21 34 31 26 23 37 36 35 36 42 47 30 23 22 25 25 29 25 23 29 21 17 18 25 21 10 350 350 347 346 346 345 343 339 335 335 332 329 328 325 321 317 311
20 20 359 9 18 23 26 23 26 32 36 42 27 25 17 17 21 19 17 12 19 4 11 7 10 10 3 348 346 346 348 346 343 344 345 342 340 337 335 334 331 328 326 321
9 20 23 10 15 18 15 16 16 20 19 27 27 23 20 23 23 19 16 356 4 1 6 357 0 357 349 348 347 346 347 348 347 348 349 348 347 344 341 337 332 326 317 312
9 6 11 18 17 20 14 13 17 17 12 11 15 17 17 17 18 21 18 8 353 341 353 357 354 350 346 348 350 349 351 351 352 351 350 350 349 347 346 345 342 339 334 323
20 12 357 15 31 21 17 10 15 9 7 3 11 17 15 16 12 17 1 10 6 356 331 350 352 344 347 350 352 353 354 354 355 354 354 354 354 352 353 351 349 348 345 338
4 10 12 24 33 31 37 25 25 14 2 3 10 12 15 14 14 13 6 4 340 326 342 352 342 346 350 352 352 356 357 357 358 357 357 357 357 357 356 357 355 354 352 349
338 11 27 45 31 35 43 36 29 22 15 10 7 14 15 9 15 2 352 338 344 344 335 341 345 350 352 354 354 357 359 360 1 360 1 0 0 3 1 0 0 359 359 358
42 48 41 48 51 48 43 38 31 26 23 17 15 15 18 17 19 6 359 349 345 338 335 341 346 352 354 356 357 359 360 3 3 2 4 2 5 8 7 6 2 4 6 4
52 71 76 61 50 44 39 34 30 27 29 28 28 17 6 18 18 360 4 356 341 336 343 345 348 355 359 360 359 360 2 3 4 5 6 5 10 13 12 6 7 9 10 10
62 63 59 52 47 41 35 32 29 28 27 31 39 34 29 29 8 7 358 355 354 352 355 353 355 357 1 2 2 3 5 4 5 7 8 11 15 15 14 10 13 15 12 12